Flag for U.S.A. Weather past 2 weeks in Sunrise Manor, Nevada, U.S.A.

Now
92 °F

Sunny.


Feels Like: 91 °F
Forecast: 75 / 93 °F
Wind: 5 mph from East

Location: Nellis Air Force Base

Current Time: Sep 17, 2014 at 1:32:40 PM

Latest Report: Sep 17, 2014 at 12:58 PM


Visibility: 10 mi

Pressure: 29.76 "Hg

Humidity: 33%

Dew point: 59 °F

Location of Sunrise ManorLocation

Historic Weather in Sunrise Manor — Graph

°F

Sunrise Manor temperature yesterday

Maximum temperature yesterday: 99 °F (at 2:58 PM)
Minimum temperature yesterday: 79 °F (at 3:58 AM)
Average temperature yesterday: 89 °F

Past Weeks' High & Low Weather Summary

 TemperatureHumidityPressure
High104 °F (Sep 2, 4:58 PM)100% (Sep 9, 2:58 AM)29.95 "Hg (Sep 9, 2:58 AM)
Low67 °F (Sep 10, 5:58 AM)5% (Sep 3, 5:58 PM)29.52 "Hg (Sep 3, 4:58 PM)
Average87 °F32%29.77 "Hg
* Reported Sep 2 11:58 AM — Sep 17 11:58 AM, Sunrise Manor, Weather by CustomWeather, © 2014

Note: Actual official high and low records may vary slightly from our data, if they occured in-between our weather recording intervals... More about our weather records

Advertising

Sunrise Manor weather history for previous 24 hours

 ConditionsComfort  
Time TempWeatherWind HumidityBarometerVisibility
11:58 AM
Sep 17
90 °FSunny.3 mph36%29.78 "Hg10 mi
10:58 AM88 °FSunny.6 mph38%29.79 "Hg10 mi
9:58 AM85 °FSunny.3 mph44%29.81 "Hg10 mi
8:58 AM84 °FSunny.1 mph46%29.82 "Hg10 mi
7:58 AM81 °FSunny.8 mph51%29.81 "Hg10 mi
6:58 AM76 °FClear.9 mph53%29.79 "Hg10 mi
5:58 AM78 °FClear.2 mph48%29.78 "Hg10 mi
4:58 AM80 °FClear.6 mph45%29.77 "Hg10 mi
3:58 AM82 °FClear.2 mph42%29.76 "Hg10 mi
2:58 AM82 °FPassing clouds.10 mph41%29.75 "Hg10 mi
1:58 AM83 °FPassing clouds.1 mph40%29.76 "Hg10 mi
12:58 AM85 °FPassing clouds.2 mph39%29.78 "Hg10 mi
11:58 PM
Sep 16
85 °FClear.3 mph37%29.81 "Hg10 mi
10:58 PM85 °FClear.13 mph37%29.82 "Hg10 mi
9:58 PM87 °FClear.1 mph37%29.82 "Hg10 mi
8:58 PM88 °FClear.13 mph40%29.79 "Hg10 mi
7:58 PM92 °FClear.31 mph36%29.72 "Hg10 mi
6:58 PM97 °FSunny.8 mph28%29.70 "Hg10 mi
5:58 PM99 °FSunny.8 mph24%29.69 "Hg10 mi
4:58 PM99 °FSunny.6 mph25%29.69 "Hg10 mi
3:58 PM99 °FSunny.8 mph26%29.70 "Hg10 mi
2:58 PM99 °FSunny.7 mph26%29.73 "Hg10 mi
1:58 PM98 °FSunny.8 mph30%29.76 "Hg10 mi
Weather by CustomWeather, © 2014

See weather overviewHow to use our weather pages